[[{"header":{"parameterUnit":"m.s-1","parameterCategory":1,"la1":30.2991,"la2":30.254,"lo1":-89.0895,"lo2":-89.0444,"dy":0.0017,"dx":0.0017,"nx":28,"ny":28,"refTime":"2024-07-31T03:00:00:Z","depth":0,"parameterNumber":2,"parameterNumberName":"U-component_of_WINDS"},"data":[0,0,0,0,0,0,0,0,0,0,0,0,0,0,0,0,0,0,0,0,0,0,0,0,0,0,0,0,0,0,0,0,0,0,0,0,0,0,0,0,0,0,0,0,0,0,0,0,0,0,0,0,0,0,0,0,0,0,1.4195,1.4197,0,1.4426,1.4428,1.4431,1.4495,1.4494,1.4492,1.4491,1.4733,1.4741,1.4748,0,0,0,0,0,0,0,0,0,0,0,0,0,1.3812,1.3818,1.4195,1.4198,1.42,1.4425,1.4429,1.4432,1.4495,1.4494,1.4492,1.449,1.4731,1.474,1.4749,0,0,0,0,0,0,0,0,0,0,0,0,0,1.4004,1.3821,1.4194,1.4259,1.4267,1.4425,1.4429,1.4433,1.4496,1.4494,1.4492,1.449,1.4728,1.4739,1.475,1.4861,0,0,1.4785,1.479,0,0,0,0,0,0,0,0,1.3993,1.4018,1.4247,1.4255,1.4264,1.4429,1.4382,1.4577,1.4496,1.4409,1.4491,1.4489,1.4634,1.4653,1.4701,1.4873,1.4883,1.4786,1.4793,1.4798,1.4802,0,0,0,0,0,0,0,1.398,1.4009,1.4286,1.425,1.4261,1.4278,1.4303,1.4419,1.453,1.4416,1.4422,1.4448,1.4638,1.469,1.4707,1.4887,1.4786,1.4796,1.4803,1.4808,1.5158,1.516,0,0,0,0,0,0,1.3955,1.3997,1.4279,1.4293,1.4121,1.4286,1.4314,1.4379,1.4529,1.455,1.4449,1.445,1.4671,1.4694,1.4716,1.4854,1.4798,1.4809,1.4816,1.5156,1.5159,1.5161,0,0,0,0,0,0,1.3946,1.3979,1.427,1.4147,1.4185,1.4295,1.4367,1.4384,1.4435,1.4554,1.4574,1.4481,1.467,1.47,1.4824,1.4863,1.4814,1.4825,1.5153,1.5157,1.516,1.5132,0,0,0,0,0,0,1.3935,1.3976,1.4019,1.4147,1.4191,1.4373,1.4369,1.439,1.4454,1.4457,1.4589,1.4609,1.4671,1.4806,1.4835,1.4878,1.4834,1.515,1.5155,1.5159,1.513,1.5134,1.5138,0,0,0,0,0,1.3921,1.4003,1.402,1.4054,1.4247,1.4375,1.44,1.4468,1.4457,1.4502,1.4577,1.4605,1.4854,1.4818,1.4851,1.4899,1.5148,1.5153,1.5159,1.5128,1.5133,1.5138,0,0,0,0,0,0,1.388,1.4022,1.4042,1.4168,1.4258,1.4385,1.4443,1.4472,1.4569,1.4568,1.465,1.468,1.4797,1.4861,1.4818,1.5013,1.5002,1.5014,1.4967,1.4973,1.4977,1.4959,1.4843,0,0,0,0,0,1.3884,1.3975,1.4095,1.4195,1.4239,1.4333,1.4391,1.4435,1.4533,1.4573,1.4657,1.4752,1.4852,1.4916,1.5015,1.5139,1.5168,1.5188,1.5192,1.5195,1.5204,1.5273,1.5282,1.5179,1.5179,1.5179,0,0,1.3897,1.3986,1.4039,1.4189,1.4264,1.4356,1.4365,1.4463,1.4533,1.4588,1.4709,1.4774,1.4886,1.501,1.5069,1.5066,1.5239,1.5201,1.5203,1.5211,1.5279,1.5289,1.5297,1.5183,1.5182,1.5181,0,0,1.3966,1.4043,1.4133,1.4207,1.432,1.4382,1.4403,1.4525,1.4569,1.4692,1.4734,1.4819,1.4989,1.5066,1.5127,1.5222,1.525,1.5252,1.5273,1.5338,1.5347,1.5354,1.5386,1.5397,1.5261,1.5261,1.5261,0,1.3968,1.4108,1.4176,1.4272,1.4336,1.4387,1.4479,1.4548,1.4688,1.4732,1.4726,1.4939,1.5018,1.5159,1.5182,1.523,1.5257,1.5237,1.5339,1.5348,1.5356,1.5388,1.54,1.526,1.526,1.526,1.5261,0,1.4103,1.42,1.4259,1.4389,1.446,1.4554,1.4636,1.47,1.4738,1.48,1.4922,1.5018,1.5136,1.5173,1.5212,1.5319,1.5314,1.5323,1.5313,1.5364,1.5395,1.5408,1.5259,1.526,1.526,1.526,0,0,1.4155,1.4319,1.434,1.4398,1.4525,1.4601,1.4696,1.4809,1.4861,1.4955,1.5037,1.5178,1.5186,1.5255,1.5303,1.5361,1.5427,1.5363,1.5367,1.5371,1.555,1.5541,1.5554,1.5446,1.5449,1.5451,1.554,0,1.4239,1.4409,1.4472,1.4611,1.47,1.4748,1.4831,1.4918,1.4977,1.5062,1.513,1.5227,1.5232,1.5273,1.5333,1.5406,1.5464,1.5401,1.5523,1.5527,1.5493,1.5571,1.5563,1.5642,1.5552,1.5555,1.5556,0,1.4361,1.4452,1.4599,1.4712,1.4752,1.4825,1.4931,1.5012,1.5111,1.515,1.5226,1.5269,1.537,1.5353,1.5494,1.5449,1.5503,1.5546,1.5551,1.5565,1.5544,1.5586,1.5669,1.568,1.5576,1.5575,1.5573,0,1.4381,1.4542,1.465,1.4699,1.4834,1.4884,1.4942,1.5039,1.5102,1.5196,1.5237,1.5342,1.5399,1.548,1.555,1.5532,1.5683,1.5673,1.5719,1.5717,1.5749,1.5746,1.5841,1.5784,1.5784,1.5784,1.5784,0,1.4468,1.4556,1.466,1.4727,1.4826,1.4898,1.4995,1.5057,1.5142,1.5222,1.5271,1.5345,1.5434,1.5519,1.5575,1.5682,1.5708,1.5743,1.5757,1.5738,1.5733,1.5774,1.577,1.5787,1.5786,1.5786,1.5785,0,1.4508,1.4582,1.4702,1.4819,1.485,1.4918,1.5018,1.5085,1.5145,1.5246,1.5273,1.537,1.5472,1.555,1.5685,1.5722,1.5835,1.585,1.5801,1.5808,1.5849,1.5843,1.5973,1.5993,1.5923,1.5923,1.5924,0,1.4558,1.4626,1.4748,1.4804,1.4862,1.4951,1.5014,1.5087,1.5151,1.5267,1.532,1.5425,1.5514,1.5676,1.5758,1.5861,1.5878,1.5916,1.5894,1.5872,1.5877,1.5872,1.5879,1.5919,1.592,1.592,1.592,0,1.4638,1.4671,1.4759,1.4859,1.4932,1.5015,1.51,1.5143,1.5231,1.53,1.5404,1.5472,1.5607,1.5712,1.5822,1.5884,1.5917,1.5926,1.5942,1.5924,1.5892,1.5908,1.5808,1.5923,1.5923,1.5923,1.5923,1.5922,1.4684,1.4746,1.4841,1.4937,1.5007,1.5084,1.5151,1.5219,1.5306,1.5421,1.5459,1.5566,1.5662,1.5813,1.5875,1.5961,1.5961,1.5985,1.599,1.5995,1.5992,1.5878,1.5981,1.5981,1.5981,1.5981,1.5981,0,1.4766,1.4829,1.4916,1.503,1.5105,1.5128,1.5221,1.5283,1.5376,1.5462,1.5546,1.5665,1.5766,1.5855,1.596,1.6011,1.6028,1.6036,1.6033,1.6046,1.5987,1.5962,1.602,1.602,1.602,1.602,1.602,1.6019,1.4817,1.4922,1.4965,1.5105,1.5168,1.5271,1.5323,1.5394,1.5462,1.5592,1.5674,1.5731,1.5818,1.5929,1.6022,1.6046,1.6082,1.6085,1.6112,1.6055,1.6051,1.6046,1.6023,1.6093,1.6093,1.6165,1.6165,1.6166]},{"header":{"parameterUnit":"m.s-1","parameterCategory":1,"la1":30.2991,"la2":30.254,"lo1":-89.0895,"lo2":-89.0444,"dy":0.0017,"dx":0.0017,"nx":28,"ny":28,"refTime":"2024-07-31T03:00:00:Z","depth":0,"parameterNumber":3,"parameterNumberName":"V-component_of_WINDS"},"data":[0,0,0,0,0,0,0,0,0,0,0,0,0,0,0,0,0,0,0,0,0,0,0,0,0,0,0,0,0,0,0,0,0,0,0,0,0,0,0,0,0,0,0,0,0,0,0,0,0,0,0,0,0,0,0,0,0,0,3.608,3.6079,0,3.5994,3.5994,3.5993,3.5868,3.5865,3.5863,3.5861,3.5775,3.5775,3.5775,0,0,0,0,0,0,0,0,0,0,0,0,0,3.6137,3.6136,3.608,3.6079,3.6078,3.5995,3.5993,3.5992,3.5868,3.5865,3.5863,3.586,3.5775,3.5775,3.5775,0,0,0,0,0,0,0,0,0,0,0,0,0,3.6088,3.6136,3.608,3.6006,3.5998,3.5995,3.5993,3.5992,3.5868,3.5865,3.5862,3.5859,3.5775,3.5775,3.5775,3.5838,0,0,3.5773,3.5773,0,0,0,0,0,0,0,0,3.6091,3.6086,3.6018,3.6011,3.6003,3.5938,3.5982,3.594,3.5869,3.5918,3.5861,3.5857,3.5832,3.5827,3.5818,3.5834,3.583,3.5773,3.5773,3.5773,3.5773,0,0,0,0,0,0,0,3.6094,3.6089,3.6046,3.6017,3.6008,3.5977,3.5966,3.5973,3.5895,3.5913,3.5904,3.5896,3.5827,3.5819,3.5815,3.5829,3.5773,3.5773,3.5773,3.5773,3.5889,3.5892,0,0,0,0,0,0,3.6109,3.6093,3.6049,3.6044,3.6039,3.5979,3.5967,3.5962,3.5894,3.588,3.5898,3.589,3.5821,3.5816,3.5812,3.5879,3.5773,3.5773,3.5772,3.5886,3.589,3.5893,0,0,0,0,0,0,3.611,3.6106,3.6052,3.6066,3.6056,3.5981,3.5977,3.5962,3.5953,3.5883,3.5868,3.5904,3.5818,3.5812,3.5831,3.5874,3.5772,3.5772,3.5882,3.5887,3.5891,3.6015,0,0,0,0,0,0,3.6113,3.6107,3.613,3.6067,3.6056,3.6074,3.598,3.5963,3.5953,3.5941,3.5884,3.5872,3.5815,3.5833,3.5831,3.5872,3.5772,3.5877,3.5884,3.589,3.6007,3.6024,3.6038,0,0,0,0,0,3.6115,3.6169,3.6132,3.6128,3.6083,3.6077,3.607,3.6004,3.5957,3.5979,3.5934,3.5873,3.587,3.5836,3.5833,3.5874,3.5874,3.5882,3.5889,3.6,3.6021,3.6038,0,0,0,0,0,0,3.6241,3.616,3.6118,3.6153,3.6123,3.6056,3.6082,3.6028,3.6011,3.6001,3.5919,3.5908,3.5937,3.5907,3.587,3.593,3.5863,3.587,3.5948,3.5967,3.5982,3.5988,3.5771,0,0,0,0,0,3.6273,3.6273,3.6203,3.6241,3.6228,3.6158,3.6153,3.6104,3.6069,3.6056,3.6011,3.598,3.5972,3.5968,3.5957,3.6003,3.5987,3.603,3.6045,3.6058,3.6065,3.6085,3.6102,3.5918,3.5918,3.5918,0,0,3.6338,3.6294,3.63,3.6265,3.6236,3.6238,3.6148,3.6155,3.6156,3.6057,3.6071,3.6038,3.5998,3.603,3.6042,3.6007,3.6113,3.6068,3.6079,3.6078,3.6095,3.6112,3.6128,3.5923,3.5922,3.5921,0,0,3.6459,3.6426,3.6453,3.6426,3.6382,3.6335,3.6342,3.6282,3.6256,3.6269,3.6195,3.6195,3.6183,3.6156,3.6142,3.6252,3.6195,3.625,3.6332,3.6352,3.6367,3.6379,3.6417,3.6431,3.6258,3.6258,3.6258,0,3.6546,3.6546,3.6475,3.6485,3.6472,3.6382,3.6409,3.6385,3.6341,3.6333,3.6294,3.6276,3.6242,3.6266,3.6293,3.6285,3.6289,3.6256,3.637,3.6382,3.6393,3.6427,3.6442,3.6265,3.6264,3.6263,3.6263,0,3.6655,3.6656,3.6684,3.6641,3.6631,3.6651,3.6581,3.658,3.6532,3.6489,3.6503,3.646,3.6438,3.644,3.6394,3.6457,3.6436,3.6385,3.6316,3.6418,3.645,3.6462,3.6275,3.6272,3.627,3.6269,0,0,3.6851,3.6768,3.678,3.6759,3.6704,3.6703,3.6718,3.6695,3.6695,3.6667,3.6677,3.6668,3.662,3.6603,3.6554,3.6572,3.6659,3.6518,3.6516,3.6544,3.6724,3.6761,3.6778,3.6622,3.6624,3.6626,3.6726,0,3.6959,3.6979,3.6914,3.695,3.695,3.6865,3.6877,3.6845,3.6806,3.68,3.6756,3.675,3.6688,3.6677,3.6692,3.6646,3.6694,3.6638,3.6629,3.6629,3.664,3.6795,3.6834,3.6931,3.6738,3.674,3.6742,0,3.7087,3.7065,3.7101,3.7043,3.7041,3.7053,3.7026,3.7022,3.6984,3.6953,3.6935,3.6877,3.6886,3.6821,3.6833,3.6796,3.6788,3.6765,3.6767,3.6763,3.6691,3.6792,3.6961,3.6975,3.6761,3.6759,3.6758,0,3.7224,3.7204,3.7222,3.7207,3.7141,3.7151,3.7124,3.7082,3.7072,3.7049,3.7041,3.702,3.7008,3.6993,3.6931,3.6889,3.6949,3.6879,3.6923,3.6925,3.6939,3.6938,3.7107,3.6937,3.6937,3.6937,3.6937,0,3.735,3.7375,3.7282,3.7294,3.7319,3.7245,3.7272,3.7236,3.72,3.7202,3.7128,3.7132,3.705,3.7045,3.6996,3.7012,3.7008,3.6983,3.697,3.6989,3.6992,3.6982,3.6973,3.6941,3.694,3.6939,3.6938,0,3.7506,3.7446,3.746,3.7395,3.738,3.7401,3.7346,3.7353,3.7309,3.7313,3.731,3.7241,3.723,3.7167,3.7143,3.711,3.7143,3.7117,3.7156,3.7146,3.7194,3.719,3.736,3.7378,3.72,3.7201,3.7203,0,3.759,3.7607,3.7544,3.754,3.7516,3.7512,3.7501,3.7429,3.7421,3.7378,3.739,3.7374,3.7357,3.7344,3.7292,3.7272,3.7244,3.7305,3.7241,3.7259,3.7243,3.7242,3.7242,3.7319,3.7321,3.7323,3.7324,0,3.7744,3.7713,3.77,3.7677,3.7666,3.7644,3.7618,3.7619,3.754,3.7534,3.7523,3.751,3.7484,3.7469,3.744,3.7411,3.7354,3.7345,3.7354,3.7373,3.7394,3.7382,3.7191,3.7341,3.734,3.7338,3.7338,3.7337,3.7864,3.7875,3.7832,3.782,3.7793,3.7771,3.7774,3.773,3.7719,3.7693,3.7651,3.7645,3.7605,3.7561,3.7537,3.753,3.7498,3.7511,3.7514,3.7518,3.7528,3.7397,3.7525,3.7525,3.7524,3.7524,3.7523,0,3.8012,3.7981,3.7971,3.7936,3.7927,3.7875,3.7843,3.7839,3.7834,3.7802,3.7787,3.7773,3.7757,3.7703,3.7682,3.7687,3.7661,3.7684,3.7682,3.7676,3.7559,3.7553,3.7706,3.7706,3.7706,3.7706,3.7706,3.7705,3.8088,3.8103,3.8067,3.8068,3.8036,3.8029,3.8016,3.7994,3.7967,3.7955,3.7942,3.7907,3.7866,3.784,3.7823,3.7808,3.7803,3.7834,3.781,3.7702,3.7684,3.7668,3.7661,3.7834,3.7835,3.7927,3.7928,3.7929]}]]